Location: Olsztyn
(53.7767°N, 20.4765°E)
Time: 04:30:35
(UTC+01:00)

Vanguard 2 - Visible Passes

Search period start: 23 January 2022 00:00
Search period end: 02 February 2022 00:00
Orbit: 553 x 2936 km, 32.9° (Epoch: 22 January)

Date Brightness Start Highest point End Pass type
(mag) Time Alt. Az. Time Alt. Az. Time Alt. Az.
23 Jan 10.8 19:32:40 10° S 19:34:54 14° SSE 19:34:54 14° SSE visible
24 Jan 10.7 19:48:40 10° S 19:51:32 16° S 19:51:32 16° S visible
25 Jan 10.6 20:05:04 10° SSW 20:08:10 18° S 20:08:10 18° S visible
26 Jan 10.6 20:21:46 10° SSW 20:24:46 18° S 20:24:46 18° S visible
27 Jan 10.6 18:35:26 10° SSE 18:38:56 13° SE 18:39:58 12° SE visible
27 Jan 10.6 20:38:39 10° SW 20:41:20 18° SSW 20:41:20 18° SSW visible
28 Jan 10.5 18:51:14 10° S 18:55:46 15° SSE 18:56:31 15° SE visible
28 Jan 10.7 20:55:43 10° SW 20:57:54 17° SSW 20:57:54 17° SSW visible
29 Jan 10.4 19:07:36 10° SSW 19:12:41 17° SSE 19:13:04 17° SSE visible
29 Jan 10.8 21:12:56 10° SW 21:14:26 15° SW 21:14:26 15° SW visible
30 Jan 10.3 19:24:18 10° SSW 19:29:36 19° SSE 19:29:36 19° SSE visible
30 Jan 10.9 21:30:18 10° SW 21:30:59 12° SW 21:30:59 12° SW visible
31 Jan 10.3 19:41:14 10° SSW 19:46:07 20° S 19:46:07 20° S visible
01 Feb 10.4 17:55:02 10° SSE 17:56:45 11° SSE 17:58:37 10° SE visible
01 Feb 10.3 19:58:21 10° SW 20:02:40 19° S 20:02:40 19° S visible
